Skip Page Navigation
NASA JPL Caltech
NASA Logo - Jet Propulsion Laboratory + View the NASA Portal
+ Center for Near-Earth Object Studies
JPL Home Earth Solar System Stars & Galaxies Technology
JPL Solar System Dynamics
BODIES ORBITS EPHEMERIDES TOOLS PHYSICAL DATA DISCOVERY FAQ SITE MAP
JPL Small-Body Database Browser
Search: [ help ]  
344660 (2003 SV66)
Classification: Main-belt Asteroid          SPK-ID: 2344660
Ephemeris | Orbit Diagram | Orbital Elements | Mission Design | Physical Parameters | Discovery Circumstances ]

[ show orbit diagram ]
Orbital Elements at Epoch 2459000.5 (2020-May-31.0) TDB
Reference: JPL 12 (heliocentric ecliptic J2000)
 Element Value Uncertainty (1-sigma)   Units 
e .1668034290507266 8.3143e-08  
a 2.674239222546341 1.992e-08 au
q 2.228166950123662 2.2362e-07 au
i 13.8248316786769 8.6684e-06 deg
node 32.32052637019726 2.3863e-05 deg
peri 348.5444300074911 3.0671e-05 deg
M 293.5691934257649 2.1536e-05 deg
tp 2459295.258157366338
(2021-Mar-21.75815737)
9.7749e-05 TDB
period 1597.345299929524
4.37
1.7848e-05
4.887e-08
d
yr
n .2253739376300688 2.5182e-09 deg/d
Q 3.120311494969021 2.3243e-08 au
  Orbit Determination Parameters
   # obs. used (total)      273  
   data-arc span      5733 days (15.70 yr)  
   first obs. used      2003-09-19  
   last obs. used      2019-05-31  
   planetary ephem.      DE431  
   SB-pert. ephem.      SB431-N16  
   condition code      0  
   norm. resid. RMS      .6011  
   source      ORB  
   producer      Otto Matic  
   solution date      2019-Sep-24 06:30:57  

Additional Information
 Earth MOID = 1.2334 au 
 Jupiter MOID = 2.33722 au 
 T_jup = 3.318 
[ show covariance matrix ]

Ephemeris | Orbit Diagram | Orbital Elements | Mission Design | Physical Parameters | Discovery Circumstances ]

Physical Parameter Table
Parameter Symbol Value Units Sigma Reference Notes
absolute magnitude H 15.8   n/a MPO476592  

344660 (2003 SV66)          Discovered 2003-Sep-19 by CINEOS at Campo Imperatore
Reference: 20121128/Numbers.arcLast Updated: 2012-12-03
Ephemeris | Orbit Diagram | Orbital Elements | Mission Design | Physical Parameters | Discovery Circumstances ]
ABOUT SSD CREDITS/AWARDS PRIVACY/COPYRIGHT GLOSSARY LINKS
FirstGov 2020-Jul-12 20:17 UT
(server date/time)  
NASA Home Page
Site Manager:   Ryan S. Park
Webmaster  Alan B. Chamberlin